Hourly Data Report for October 06, 2015

All times are specified in Local Standard Time (LST). Add 1 hour to adjust for Daylight Saving Time where and when it is observed.

PANGNIRTUNG
NUNAVUT

66°08'36.300" N
65°42'40.500" W
22.60 m
2403049
71826
WXP

Download Data

Hourly Data (October 2015)
Hourly Data Report for October 6, 2015
Temp Definition
°C
Dew Point Temp Definition
°C
Rel Hum Definition
%
Wind Dir Definition
10's deg

Wind Spd Definition
km/h
Visibility Definition
km
Stn Press Definition
kPa
Hmdx Definition


Wind Chill Definition


Weather Definition


TIME
00:00 -6.9 -11.0 73 12 6   101.27   -10 LegendNANA
01:00 -9.1 -12.7 75 10 10   101.28   -14 LegendNANA
02:00 -7.3 -11.4 72 34 1   101.27   -8 LegendNANA
03:00 -8.7 -12.3 75 2 2   101.27   -10 LegendNANA
04:00 -9.3 -12.8 75 11 14   101.26   -16 LegendNANA
05:00 -7.8 -11.6 74 8 5   101.24   -10 LegendNANA
06:00 -8.0 -11.0 79 9 12   101.23   -13 LegendNANA
07:00 -7.1 -10.5 76 6 3   101.20   -9 LegendNANA
08:00 -6.8 -10.5 75 12 6   101.18   -10 LegendNANA
09:00 -6.2 -10.4 72 7 4   101.13   -8 LegendNANA
10:00 -6.1 -10.8 69 12 3   101.07   -8 LegendNANA
11:00 -5.9 -10.7 69 6 4   101.00   -8 LegendNANA
12:00 -5.9 -11.5 64   0   100.96     LegendNANA
13:00 -5.6 -11.1 65 15 2   100.92   -7 LegendNANA
14:00 -6.2 -11.4 66   0   100.88     LegendNANA
15:00 -5.7 -10.0 72 13 3   100.85   -7 LegendNANA
16:00 -6.5 -10.2 75 9 4   100.81   -8 LegendNANA
17:00 -6.4 -9.5 79 11 6   100.74   -9 LegendNANA
18:00 -6.7 -9.9 78 11 6   100.71   -10 LegendNANA
19:00 -6.6 -9.8 78 13 5   100.66   -9 LegendNANA
20:00 -7.1 -9.8 81 21 1   100.60   -8 LegendNANA
21:00 -7.3 -10.4 78 19 2   100.53   -8 LegendNANA
22:00 -7.4 -10.7 77 13 6   100.50   -11 LegendNANA
23:00 -7.6 -10.4 80 24 6   100.43   -11 LegendNANA

Notes on Data Quality.

Legend

  • E = Estimated
  • M = Missing
  • NA = Not Available
  • ‡ = Partner data that is not subject to review by the National Climate Archives
Date modified: